TimeEDT,TemperatureF,Dew PointF,Humidity,Sea Level PressureIn,VisibilityMPH,Wind Direction,Wind SpeedMPH,Gust SpeedMPH,PrecipitationIn,Events,Conditions,WindDirDegrees,DateUTC
12:51 AM,75.0,69.1,82,29.83,10.0,West,5.8,-,N/A,,Clear,270,2013-07-21 04:51:00
1:51 AM,75.0,64.0,69,29.84,10.0,NW,4.6,-,N/A,,Clear,320,2013-07-21 05:51:00
2:51 AM,73.0,61.0,66,29.85,10.0,WNW,8.1,-,N/A,,Partly Cloudy,300,2013-07-21 06:51:00
3:51 AM,73.0,61.0,66,29.85,10.0,NNW,6.9,-,N/A,,Overcast,340,2013-07-21 07:51:00
4:51 AM,71.1,62.1,73,29.87,10.0,SW,3.5,-,0.00,,Partly Cloudy,230,2013-07-21 08:51:00
5:51 AM,71.1,63.0,75,29.88,10.0,WNW,3.5,-,N/A,,Mostly Cloudy,300,2013-07-21 09:51:00
6:51 AM,70.0,64.9,84,29.91,7.0,North,4.6,-,0.07,Rain,Light Rain,360,2013-07-21 10:51:00
7:51 AM,72.0,66.9,84,29.91,10.0,NNW,3.5,-,0.00,,Mostly Cloudy,340,2013-07-21 11:51:00
8:51 AM,71.1,66.9,87,29.95,7.0,Calm,Calm,-,0.03,Rain,Light Rain,0,2013-07-21 12:51:00
9:51 AM,75.0,66.0,73,29.93,10.0,North,6.9,-,0.02,,Mostly Cloudy,360,2013-07-21 13:51:00
10:51 AM,78.1,66.0,66,29.95,10.0,East,4.6,-,N/A,,Mostly Cloudy,100,2013-07-21 14:51:00
11:51 AM,78.1,64.9,64,29.96,10.0,SE,4.6,-,N/A,,Overcast,140,2013-07-21 15:51:00
12:51 PM,78.1,64.0,62,29.96,10.0,SSE,4.6,-,N/A,,Mostly Cloudy,160,2013-07-21 16:51:00
1:51 PM,80.1,64.9,60,29.96,10.0,SE,5.8,-,N/A,,Mostly Cloudy,140,2013-07-21 17:51:00
2:51 PM,80.1,63.0,56,29.96,10.0,SE,3.5,-,N/A,,Mostly Cloudy,130,2013-07-21 18:51:00
3:51 PM,82.0,63.0,52,29.95,10.0,SSE,6.9,-,N/A,,Scattered Clouds,160,2013-07-21 19:51:00
4:51 PM,82.9,64.0,53,29.94,10.0,SSE,9.2,-,N/A,,Scattered Clouds,150,2013-07-21 20:51:00
5:51 PM,81.0,66.0,60,29.94,10.0,SSE,8.1,-,N/A,,Scattered Clouds,150,2013-07-21 21:51:00
6:51 PM,79.0,66.0,64,29.94,10.0,SSE,8.1,-,N/A,,Scattered Clouds,160,2013-07-21 22:51:00
7:51 PM,75.9,64.9,69,29.95,10.0,South,5.8,-,N/A,,Mostly Cloudy,180,2013-07-21 23:51:00
8:51 PM,73.9,66.0,76,29.96,10.0,South,4.6,-,N/A,,Mostly Cloudy,190,2013-07-22 00:51:00
9:51 PM,73.0,68.0,84,29.99,10.0,South,4.6,-,N/A,,Mostly Cloudy,180,2013-07-22 01:51:00
10:51 PM,71.1,66.9,87,29.99,10.0,South,3.5,-,N/A,,Mostly Cloudy,190,2013-07-22 02:51:00
11:51 PM,71.1,68.0,90,29.99,10.0,South,3.5,-,N/A,,Mostly Cloudy,190,2013-07-22 03:51:00